User: anonymous   Login
Location: Columbia
(38.9520°N, 92.3340°W)
Time: 09:57:41
(UTC-06:00)
Language:

SJ-11-01 - Orbit

View from above orbital plane
View from above orbital plane
View from above satellite
View from above satellite

Ground track
Ground track

The orbit data is extracted from the following two-line orbital elements,

1 36088U 09061A   17020.14782170  .00000065  00000-0  23163-4 0  9991
2 36088  98.1588  70.5130 0011909  15.2614 344.8961 14.59909557383048
Epoch (UTC): 20 January 2017 03:32:51
Eccentricity: 0.0011909
inclination: 98.1588°
perigee height: 685 km
apogee height: 702 km
right ascension of ascending node: 70.5130°
argument of perigee: 15.2614°
revolutions per day: 14.59909557
mean anomaly at epoch: 344.8961°
orbit number at epoch: 38304

The dashed part of the orbit path shows where the satellite is in the earth's shadow,  

DLR